Location: Cedar Falls
(42.5280°N, 92.4450°W)
Time: 17:21:52
(UTC-05:00)

NOSS 3-1 (C) - Visible Passes

Search period start: 29 May 2015 00:00
Search period end: 08 June 2015 00:00
Orbit: 879 x 1330 km, 63.4° (Epoch: 23 May)

Date Brightness Start Highest point End Pass type
(mag) Time Alt. Az. Time Alt. Az. Time Alt. Az.
29 May 6.6 01:04:56 10° NNW 01:08:45 15° NNE 01:12:52 10° NE visible
29 May 5.5 02:55:26 10° NNW 03:02:03 35° NE 03:09:16 10° ESE visible
29 May 4.0 04:46:04 10° NW 04:53:36 69° WSW 05:01:41 10° SSE visible
29 May 6.5 22:24:16 10° WNW 22:28:34 18° NNW 22:33:00 10° NNE visible
30 May 6.7 00:19:23 10° NNW 00:22:35 13° N 00:25:59 10° NE visible
30 May 6.0 02:10:21 10° NNW 02:16:16 26° NNE 02:22:46 10° E visible
30 May 4.1 04:00:47 10° NW 04:08:19 83° NE 04:16:30 10° SE visible
30 May 6.2 21:37:40 10° W 21:42:36 23° NNW 21:47:49 10° NNE visible
30 May 6.6 23:33:24 10° NNW 23:36:23 13° N 23:39:29 10° NNE visible
31 May 6.3 01:25:15 10° NNW 01:30:21 20° NNE 01:35:57 10° ENE visible
31 May 4.6 03:15:35 10° NNW 03:22:55 59° NE 03:30:55 10° SE visible
31 May 6.5 22:46:54 10° NW 22:50:13 14° N 22:53:35 10° NNE visible
01 Jun 6.5 00:40:03 10° NNW 00:44:19 17° NNE 00:48:57 10° ENE visible
01 Jun 5.2 02:30:27 10° NNW 02:37:22 42° NE 02:44:56 10° ESE visible
01 Jun 4.1 04:21:16 10° NW 04:28:40 55° WSW 04:36:33 10° SSE visible
01 Jun 6.4 22:00:10 10° NW 22:04:05 16° NNW 22:08:07 10° NNE visible
01 Jun 6.5 23:54:41 10° NNW 23:58:11 14° N 00:01:56 10° NE visible
02 Jun 5.6 01:45:21 10° NNW 01:51:41 31° NE 01:58:36 10° E visible
02 Jun 4.0 03:35:54 10° NW 03:43:27 81° SW 03:51:37 10° SSE visible
02 Jun 6.3 21:13:29 10° WNW 21:18:04 20° NNW 21:22:52 10° NNE visible
02 Jun 6.5 23:08:58 10° NNW 23:12:00 13° N 23:15:11 10° NNE visible
03 Jun 6.0 01:00:16 10° NNW 01:05:50 23° NNE 01:11:56 10° E visible
03 Jun 4.2 02:50:39 10° NNW 02:58:07 71° NE 03:06:15 10° SE visible
03 Jun 4.8 04:42:20 10° NW 04:48:46 29° WSW 04:55:21 10° SSW visible
03 Jun 6.5 22:22:44 10° NNW 22:25:49 13° N 22:28:59 10° NNE visible
04 Jun 6.2 00:15:08 10° NNW 00:19:52 18° NNE 00:25:01 10° ENE visible
04 Jun 4.8 02:05:29 10° NNW 02:12:39 50° NE 02:20:29 10° ESE visible
04 Jun 4.3 03:56:31 10° NW 04:03:42 44° WSW 04:11:16 10° S visible
04 Jun 6.4 21:36:05 10° NW 21:39:39 15° NNW 21:43:18 10° NNE visible
04 Jun 6.4 23:29:53 10° NNW 23:33:47 15° NNE 23:38:00 10° NE visible
05 Jun 5.3 01:20:22 10° NNW 01:27:03 36° NE 01:34:20 10° ESE visible
05 Jun 4.0 03:11:02 10° NW 03:18:33 66° WSW 03:26:36 10° SSE visible
05 Jun 6.4 22:44:23 10° NNW 22:47:37 13° N 22:51:04 10° NE visible
06 Jun 5.7 00:35:17 10° NNW 00:41:17 27° NNE 00:47:51 10° E visible
06 Jun 4.0 02:25:44 10° NW 02:33:17 86° NE 02:41:28 10° SE visible
06 Jun 5.1 04:17:56 10° WNW 04:23:44 22° WSW 04:29:29 10° SSW visible
06 Jun 6.4 21:58:26 10° NNW 22:01:26 13° N 22:04:32 10° NNE visible
06 Jun 6.0 23:50:11 10° NNW 23:55:23 21° NNE 00:01:04 10° ENE visible
07 Jun 4.4 01:40:31 10° NNW 01:47:53 61° NE 01:55:55 10° SE visible
07 Jun 4.6 03:31:53 10° NW 03:38:43 35° WSW 03:43:46 18° SSW visible
07 Jun 6.3 21:11:59 10° NW 21:15:15 14° N 21:18:34 10° NNE visible
07 Jun 6.2 23:05:01 10° NNW 23:09:21 17° NNE 23:14:05 10° ENE visible
